date,batt_volt,AirTemp_C,Solar_kW,RH,Manual_BP,StationID,WS_ms,PTemp,WS_15min_max,Prog_Sig,Solar_Raw,Bar_mbar,Solar_MJ,Max_WS_2min,Pressure_Raw,Rain_mm,WD_15min_ave,Max_AirTemp_1min,WindDir,WS_15min_med,WS_15min_ave,Elevation_Correction
2021-09-01T00:00:32Z,13.17527,18.44904,0.0,82.11988,0,1156,1.176,17.945,2.5676,43690,0.0,1003.704,0.0,1.784,1001.903,0,160.040743372,18.42,172.2706,1.2152,1.28357469943,1.80078
2021-09-01T00:15:37Z,13.18123,18.31457,0.0,82.90015,0,1156,1.568,17.74167,2.8224,43690,0.0,1003.704,0.0,2.822,1001.903,0,153.292964167,18.42,158.5445,1.6268,1.64166896379,1.80078
2021-09-01T00:30:37Z,13.17047,18.21445,0.0,83.27478,0,1156,1.666,17.58804,3.2536,43690,0.0,1003.704,0.0,3.077,1001.903,0,151.913464589,18.38,161.3136,1.9992,2.03378160862,1.80078
2021-09-01T00:45:38Z,13.17687,18.42385,0.0,82.09821,0,1156,2.4892,17.53834,3.822,43690,0.0,1003.704,0.0,3.254,1001.903,0,155.585664756,18.49,151.3032,2.695,2.69353563218,1.80078
2021-09-01T01:00:39Z,13.1827,17.94994,0.0,84.09684,0,1156,2.0384,17.48864,3.6456,43690,0.0,1003.618,0.0,2.999,1001.817,0,154.561978296,18.15,142.2622,2.4696,2.46160229885,1.80078
2021-09-01T01:15:37Z,13.18301,17.57807,0.0,86.33324,0,1156,1.9208,17.31241,3.1948,43690,0.0,1003.618,0.0,2.901,1001.817,0,148.459757899,17.58,150.2476,2.2344,2.19125747069,1.80078
2021-09-01T01:30:40Z,13.18983,17.686,0.0,85.76686,0,1156,0.0196,17.16105,3.038,43690,0.0,1003.618,0.0,1.254,1001.817,0,153.235655257,17.75,141.0048,1.4112,1.41041148966,1.80078
2021-09-01T01:45:38Z,13.18496,17.01173,0.0,88.17678,0,1156,1.2544,17.03679,1.2544,43690,0.0,1003.618,0.0,1.196,1001.817,0,148.027787628,17.18,154.4815,0.6076,0.562395369364,1.80078
2021-09-01T02:00:42Z,13.19076,17.04605,0.0,88.95661,0,1156,0.9799999,16.81086,1.7836,43690,0.0,1003.061,0.0,1.744,1001.26,0,152.522845121,17.11,157.6815,1.2936,1.30249884368,1.80078
2021-09-01T02:15:40Z,13.19628,16.77505,0.0,89.29537,0,1156,0.0196,16.61205,1.6856,43690,0.0,1003.061,0.0,0.6860001,1001.26,0,143.010096124,16.91,183.2482,0.49,0.46892716185,1.80078
2021-09-01T02:30:39Z,13.2018,15.99592,0.0,92.17477,0,1156,0.392,16.46293,0.7448,43690,0.0,1003.061,0.0,0.412,1001.26,0,157.381306901,16.06,43.29267,0.1666,0.192620689655,1.80078
2021-09-01T02:45:42Z,13.2018,16.30079,0.0,91.80214,0,1156,0.0196,16.33868,1.5484,43690,0.0,1003.061,0.0,0.882,1001.26,0,135.137183439,16.5,68.35431,0.3332,0.381862065517,1.80078
2021-09-01T03:00:42Z,13.2018,16.36855,0.0,92.24251,0,1156,0.5488,16.26638,1.3328,43690,0.0,1003.467,0.0,0.7640001,1001.667,0,126.861719606,16.4,60.0325,0.4508,0.476257466667,1.80078
2021-09-01T03:15:41Z,13.20731,16.23304,0.0,92.4119,0,1156,0.2352,16.24153,2.058,43690,0.0,1003.467,0.0,1.47,1001.667,0,155.224169996,16.37,119.3916,0.6958,0.696701133908,1.80078
2021-09-01T03:30:44Z,13.2018,16.26692,0.0,92.37802,0,1156,0.6468,16.19182,1.8816,43690,0.0,1003.467,0.0,1.196,1001.667,0,138.691611716,16.37,142.481,0.8428,0.880422975287,1.80078
2021-09-01T03:45:46Z,13.20731,16.91055,0.0,91.12463,0,1156,2.548,16.14212,4.312,43690,0.0,1003.467,0.0,3.979,1001.667,0,137.841888589,16.91,124.7069,1.3426,1.58827585862,1.80078
2021-09-01T04:00:46Z,13.2018,17.55418,0.0,88.1436,0,1156,4.2924,16.16697,6.1152,43690,0.0,1003.142,0.0,4.88,1001.341,0,134.088092545,17.45,129.8059,4.018,4.00391954023,1.80078
2021-09-01T04:15:45Z,13.19628,17.04605,0.0,89.22762,0,1156,2.842,16.29123,4.7236,43690,0.0,1003.142,0.0,3.254,1001.341,0,132.886300276,17.32,136.1073,3.087,3.3000091954,1.80078
2021-09-01T04:30:45Z,13.2018,17.41868,0.0,87.66935,0,1156,2.3716,16.33868,2.842,43690,0.0,1003.142,0.0,2.254,1001.341,0,143.42275941,17.42,156.4549,2.1168,2.07219310345,1.80078
2021-09-01T04:45:47Z,13.2018,17.92681,0.0,85.19645,0,1156,1.862,16.43808,2.6068,43690,0.0,1003.142,0.0,2.352,1001.341,0,155.604052621,17.99,148.0128,1.9992,1.9646183908,1.80078
2021-09-01T05:00:48Z,13.19076,17.52031,0.0,86.99185,0,1156,2.0188,16.61205,2.9792,43690,0.0,1003.386,0.0,2.783,1001.585,0,147.216742572,17.62,140.0277,2.352,2.27810574713,1.80078
2021-09-01T05:15:46Z,13.19628,17.35093,0.0,88.41461,0,1156,2.4892,16.71145,4.214,43690,0.0,1003.386,0.0,3.646,1001.585,0,142.747060895,17.42,145.6558,2.793,2.77283678161,1.80078
2021-09-01T05:30:50Z,13.19076,17.21543,0.0,88.99049,0,1156,3.7436,16.7363,5.0176,43690,0.0,1003.386,0.0,5.018,1001.585,0,136.954016252,17.22,132.8604,3.528,3.54422068966,1.80078
2021-09-01T05:45:51Z,13.19628,17.1138,0.0,89.66799,0,1156,4.6256,16.6866,5.4488,43690,0.0,1003.386,0.0,5.449,1001.585,0,130.646094522,17.18,120.5701,3.8514,3.86469195402,1.80078
2021-09-01T06:00:50Z,13.19628,16.9783,0.0,90.78588,0,1156,4.6452,16.61205,5.4684,43690,0.0,1003.467,0.0,5.468,1001.667,0,131.603327051,17.05,128.2906,4.1552,4.2325862069,1.80078
2021-09-01T06:15:52Z,13.2018,16.94443,0.0,91.15851,0,1156,4.7236,16.56234,6.0564,43690,0.0,1003.467,0.0,6.056,1001.667,0,132.929344971,17.01,140.7733,4.7824,4.75390114943,1.80078
2021-09-01T06:30:53Z,13.2018,16.8428,0.0,91.66663,0,1156,3.6848,16.53749,6.1544,43690,0.0,1003.467,0.0,4.567,1001.667,0,135.555932391,16.94,137.8631,4.4688,4.4811908046,1.80078
2021-09-01T06:45:54Z,13.2018,16.7073,0.0,91.93764,0,1156,3.8024,16.53749,4.5668,43690,0.0,1003.467,0.0,4.194,1001.667,0,137.177264661,16.91,140.8455,3.4692,3.51729885057,1.80078
2021-09-01T07:00:54Z,13.2018,16.67342,0.0,92.34414,0,1156,4.0376,16.53749,4.7824,43690,0.0,1003.549,0.0,4.782,1001.748,0,138.564148666,16.78,137.8631,3.5966,3.60854022989,1.80078
2021-09-01T07:15:55Z,13.2018,16.40242,0.0,92.9539,0,1156,3.7436,16.41324,4.8412,43690,0.0,1003.549,0.0,4.665,1001.748,0,136.467653134,16.57,135.6985,3.5574,3.56483448276,1.80078
2021-09-01T07:30:54Z,13.21283,16.1653,0.0,93.19102,0,1156,1.6856,16.24153,3.92,43690,0.0,1003.549,0.0,2.234,1001.748,0,141.889181695,16.3,139.4024,2.2442,2.39165057471,1.80078
2021-09-01T07:45:57Z,13.21835,15.99592,0.0,93.69916,0,1156,1.7052,15.99527,3.5084,43690,0.0,1003.549,0.0,2.332,1001.748,0,147.411990281,16.13,143.9722,2.2344,2.28430114943,1.80078
2021-09-01T08:00:56Z,13.22386,15.99592,0.0,94.44442,0,1156,3.43,15.77386,4.9588,43690,0.0,1002.898,0.0,4.802,1001.097,0,139.940578175,16.1,132.1148,3.234,3.18105747126,1.80078
2021-09-01T08:15:58Z,13.22386,15.96204,0.0,94.85091,0,1156,4.9,15.67672,5.096,43690,0.0,1002.898,0.0,4.645,1001.097,0,138.64225171,16.06,137.1175,3.8024,3.74923218391,1.80078
2021-09-01T08:30:58Z,13.22386,15.99592,0.0,95.25742,0,1156,3.6652,15.65187,5.5272,43690,0.0,1002.898,0.0,5.155,1001.097,0,137.411213888,16.03,138.3682,4.802,4.74770574713,1.80078
2021-09-01T08:46:02Z,13.22389,15.96204,0.0,95.59618,0,1156,4.7628,15.60442,5.096,43690,0.0,1002.898,0.0,4.998,1001.097,0,139.784200667,15.96,139.8834,4.1552,4.018448,1.80078
2021-09-01T09:00:58Z,13.22432,15.62329,0.0,95.79942,0,1156,2.9596,15.52987,4.9588,43690,0.0,1003.467,0.0,3.881,1001.667,0,140.759138492,15.83,149.3116,3.4496,3.43067976879,1.80078
2021-09-01T09:16:02Z,13.22388,15.79266,0.0,96.07042,0,1156,3.3712,15.50502,3.6652,43690,0.0,1003.467,0.0,3.41,1001.667,0,139.587225229,15.86,136.0111,2.646,2.58134252874,1.80078
2021-09-01T09:31:03Z,13.22387,16.1653,0.0009640771,96.30756,0,1156,3.136,15.65187,5.1744,43690,0.0674854,1003.467,4.820386e-06,5.174,1001.667,0,131.887740499,16.27,137.358,4.1944,4.18752873563,1.80078
2021-09-01T09:46:04Z,13.21284,16.13142,0.003856308,96.34143,0,1156,4.41,15.84842,5.4488,43690,0.2699416,1003.467,1.928154e-05,5.449,1001.667,0,133.559000002,16.2,136.1554,3.626,3.86626896552,1.80078
2021-09-01T10:01:06Z,13.21836,15.96204,0.01542523,96.47694,0,1156,3.038,15.84842,5.0764,43690,1.079766,1004.443,7.712617e-05,4.214,1002.642,0,140.686553808,15.96,143.9962,3.5084,3.411856,1.80078
2021-09-01T10:16:08Z,13.21836,15.96204,0.02506601,96.61243,0,1156,3.6848,15.72642,4.2924,43690,1.75462,1004.443,0.00012533,4.292,1002.642,0,140.440913535,15.89,141.1581,3.0478,3.03935172414,1.80078
2021-09-01T10:31:08Z,13.22387,15.92912,0.1272582,96.7157,0,1156,3.43,15.70157,4.5668,43690,8.908073,1004.443,0.0006362909,3.92,1002.642,0,135.942967156,16.06,126.1041,3.6064,3.63354712644,1.80078
2021-09-01T10:46:06Z,13.21284,16.50409,0.1812465,96.57864,0,1156,4.998,15.89586,4.802,43690,12.68726,1004.443,0.0009062325,4.488,1002.642,0,137.254590968,16.67,135.0732,3.4594,3.4253816092,1.80078
2021-09-01T11:01:07Z,13.19629,16.80897,0.137863,96.03663,0,1156,4.606,16.51264,5.6252,43690,9.650413,1004.606,0.0006893152,5.41,1002.805,0,131.861953233,16.81,134.3757,4.6452,4.63506206897,1.80078
2021-09-01T11:16:09Z,13.19077,16.80897,0.06844947,95.35912,0,1156,3.9984,17.01194,5.5468,43690,4.791463,1004.606,0.0003422474,4.155,1002.805,0,131.790472492,16.94,132.139,4.0474,4.11678850575,1.80078
2021-09-01T11:31:09Z,13.1849,17.01189,0.3470678,95.12144,0,1156,3.7436,17.36212,4.4296,43690,24.29474,1004.606,0.001735339,4.234,1002.805,0,133.068040791,17.01,125.4279,3.8024,3.7229862069,1.80078
2021-09-01T11:46:10Z,13.15992,17.1684,0.3923662,93.06799,0,1156,4.116,18.37878,5.292,43690,27.46563,1004.606,0.001961831,4.39,1002.805,0,124.693215709,17.31,122.0573,3.9396,3.95942528736,1.80078
2021-09-01T12:01:11Z,13.1367,17.80581,0.3826444,90.45068,0,1156,2.7048,19.31185,4.3708,43690,26.7851,1005.169,0.001913222,3.802,1003.368,0,129.745844076,17.87,131.8301,2.9106,2.89606896552,1.80078
2021-09-01T12:16:11Z,13.12013,18.21202,0.4385084,88.62178,0,1156,2.6852,20.28785,4.7236,43690,30.69559,1005.169,0.002192542,3.881,1003.368,0,130.016552306,18.25,120.866,3.136,3.23670344828,1.80078
2021-09-01T12:31:15Z,13.09936,18.5994,0.4756118,85.88485,0,1156,3.0184,21.2051,4.508,43690,33.29283,1005.169,0.002378059,3.881,1003.368,0,128.303171985,18.73,133.4455,3.4692,3.428768,1.80078
2021-09-01T12:46:15Z,13.0826,18.93705,0.52123,85.07111,0,1156,3.9592,22.16755,4.704,43690,36.4861,1005.169,0.00260615,4.332,1003.368,0,129.209909575,18.97,127.3386,3.4986,3.3995862069,1.80078
2021-09-01T13:01:11Z,13.06606,19.34327,0.5626421,83.61545,0,1156,4.5668,23.1232,5.2528,43690,39.38494,1005.971,0.00281321,4.704,1004.171,0,126.004831063,19.48,125.2715,3.9396,3.90379884393,1.80078
2021-09-01T13:16:13Z,13.05237,19.73874,0.6440513,83.29577,0,1156,3.7828,23.89813,6.174,43690,45.08359,1005.971,0.003220256,4.704,1004.171,0,125.343180224,19.74,123.9032,4.7726,4.76753103448,1.80078
2021-09-01T13:31:14Z,13.03968,19.7296,0.6126894,80.98182,0,1156,3.4888,24.74761,4.8804,43690,42.88826,1005.971,0.003063447,4.234,1004.171,0,124.227531841,19.9,126.0707,3.4888,3.54478390805,1.80078
2021-09-01T13:46:17Z,13.03409,20.03387,0.6169193,80.67685,0,1156,2.842,25.37116,4.312,43690,43.18435,1005.971,0.003084597,3.567,1004.171,0,121.85261148,20.0,119.2464,2.7048,2.77407586207,1.80078
2021-09-01T14:01:18Z,13.0257,20.02249,0.6337229,79.8157,0,1156,2.4696,25.79364,4.41,43690,44.3606,1005.873,0.003168615,3.332,1004.072,0,125.114469506,20.09,118.4311,2.9694,2.94236551724,1.80078
2021-09-01T14:16:18Z,13.01916,19.37217,0.6390186,78.31714,0,1156,3.2928,25.94501,6.6836,43690,44.7313,1005.873,0.003195093,3.43,1004.072,0,125.18724876,19.85,160.6905,3.7926,3.92788505747,1.80078
2021-09-01T14:31:18Z,13.01867,20.55566,0.7858917,77.94427,0,1156,5.4488,26.00601,6.1348,43690,55.01242,1005.873,0.003929458,4.39,1004.072,0,136.932009814,20.56,119.4719,2.6264,2.44470574368,1.80078
2021-09-01T14:46:17Z,13.01315,20.89312,0.8118955,75.37215,0,1156,7.5264,26.28164,7.7812,43690,56.83268,1005.873,0.004059477,7.781,1004.072,0,126.842200141,20.99,123.9858,4.9196,4.93773561494,1.80078
2021-09-01T15:01:18Z,13.00764,20.6563,0.8388624,75.33831,0,1156,7.016799,26.4669,9.505999,43690,58.72037,1006.361,0.004194312,8.96,1004.56,0,124.759360259,20.72,122.2324,7.2324,7.2800481092,1.80078
2021-09-01T15:16:17Z,12.99662,21.06226,0.8504197,75.1015,0,1156,7.4088,26.5279,8.8984,43690,59.52937,1006.361,0.004252098,8.059999,1004.56,0,124.53992349,21.16,122.977,7.448,7.37571771676,1.80078
2021-09-01T15:31:20Z,13.00764,20.75779,0.8475303,74.79703,0,1156,9.4276,26.62053,9.7804,43690,59.32712,1006.361,0.004237651,9.55,1004.56,0,123.450103653,20.86,125.9794,8.036,7.98012847701,1.80078
2021-09-01T15:46:21Z,13.00764,20.75779,0.830676,73.20706,0,1156,6.2916,26.5279,9.525599,43690,58.14732,1006.361,0.00415338,7.154,1004.56,0,122.19306284,20.83,123.5535,7.0854,7.04755154598,1.80078
2021-09-01T16:01:24Z,13.00764,20.9946,0.8528274,72.42897,0,1156,7.448,26.49852,7.6244,43690,59.69792,1006.036,0.004264137,7.605001,1004.236,0,120.787787884,21.03,120.9114,6.4288,6.44828725287,1.80078
2021-09-01T16:16:25Z,13.00764,21.09609,0.8701632,70.90665,0,1156,7.9772,26.4059,9.0552,43690,60.91142,1006.036,0.004350816,9.059999,1004.236,0,121.904480562,21.13,122.2564,7.0854,7.17134694828,1.80078
2021-09-01T16:31:26Z,13.00764,21.06226,0.8716078,69.28283,0,1156,8.5064,26.15964,9.819599,43690,61.01255,1006.036,0.004358039,8.72,1004.236,0,122.541343701,21.2,121.1035,7.7517995,7.77691929885,1.80078
2021-09-01T16:46:29Z,13.01866,20.45333,0.5947159,72.49663,0,1156,10.0156,25.88627,10.8388,43690,41.63011,1006.036,0.002973579,10.84,1004.236,0,122.619004457,20.66,123.0491,9.133599,9.05015977143,1.80078
2021-09-01T17:01:29Z,13.01866,20.38618,0.7305134,72.90321,0,1156,8.722,25.58353,10.7212,43690,51.13593,1006.774,0.003652566,10.45,1004.973,0,123.257422173,20.56,123.1462,9.212,9.19116073563,1.80078
2021-09-01T17:16:29Z,13.02417,20.389,0.6183119,73.58324,0,1156,8.82,25.5519,10.1136,43690,43.28183,1006.774,0.003091559,9.429999,1004.973,0,123.468674493,20.52,123.2961,8.6141995,8.60304797701,1.80078
2021-09-01T17:31:28Z,13.01901,20.5921,0.6534651,73.7187,0,1156,8.408401,25.6739,10.2312,43690,45.74256,1006.774,0.003267325,9.599999,1004.973,0,123.635264777,20.69,122.6718,8.4965995,8.43171697126,1.80078
2021-09-01T17:46:27Z,13.01866,20.52286,0.525854,72.87101,0,1156,7.2912,25.6739,10.0548,43690,36.80978,1006.774,0.00262927,8.7,1004.973,0,126.283891189,20.73,127.4004,8.036,8.02405952299,1.80078
2021-09-01T18:01:31Z,13.01866,20.89445,0.666467,71.4495,0,1156,8.7024,25.6739,9.505999,43690,46.65269,1007.096,0.003332335,9.309999,1005.295,0,126.634943369,21.0,126.5106,7.791,7.70212392529,1.80078
2021-09-01T18:16:30Z,13.01867,22.00975,0.7834839,70.0612,0,1156,6.566,25.94501,9.133599,43690,54.84388,1007.096,0.00391742,8.37,1005.295,0,127.466267496,21.91,123.9143,7.3304,7.25042278736,1.80078
2021-09-01T18:31:32Z,13.00764,21.33289,0.7049911,71.21111,0,1156,8.192799,26.3449,9.6628,43690,49.34938,1007.096,0.003524955,9.349999,1005.295,0,127.231994956,21.27,126.82,7.8693995,7.75833311494,1.80078
2021-09-01T18:46:34Z,13.01315,21.40055,0.7266609,71.85387,0,1156,7.448,26.37427,9.9176,43690,50.86626,1007.096,0.003633304,8.979999,1005.295,0,128.588867146,21.23,130.519,8.212401,8.07542507471,1.80078
2021-09-01T19:01:33Z,13.00764,20.89311,0.5557102,71.85387,0,1156,7.9576,26.37427,9.368799,43690,38.89972,1007.417,0.002778551,9.0,1005.616,0,129.082408477,21.16,125.2828,7.2813995,7.30989864943,1.80078
2021-09-01T19:16:35Z,13.01866,21.19758,0.478662,71.00814,0,1156,5.1548,26.09864,9.2512,43690,33.50634,1007.417,0.00239331,7.193,1005.616,0,129.630968013,21.3,130.0146,7.1932,7.15591474138,1.80078
2021-09-01T19:31:35Z,13.01866,21.43438,0.3134899,68.70773,0,1156,6.0564,26.00601,7.7028,43690,21.94429,1007.417,0.001567449,7.546001,1005.616,0,130.805223387,21.6,128.045,6.272,6.21027121264,1.80078
2021-09-01T19:46:36Z,13.02417,20.92694,0.4699941,70.26389,0,1156,7.8204,25.76427,8.918,43690,32.89959,1007.417,0.00234997,8.8,1005.616,0,129.638802362,21.13,134.6983,7.4088,7.32138836207,1.80078
2021-09-01T20:01:37Z,13.01898,19.94639,0.3977614,72.26044,0,1156,6.8012,25.28079,9.4668,43690,27.8433,1007.423,0.001988807,8.78,1005.623,0,130.431189187,20.12,134.171,7.6831995,7.59353547701,1.80078
2021-09-01T20:16:37Z,13.04447,19.72632,0.3409457,74.34489,0,1156,6.8012,24.62786,8.3888,43690,23.8662,1007.423,0.001704728,8.349999,1005.623,0,131.340694671,19.79,136.7553,7.3205995,7.28027336782,1.80078
2021-09-01T20:31:41Z,13.05611,19.28926,0.2596114,76.14203,0,1156,6.1348,23.9275,8.7024,43690,18.1728,1007.423,0.001298057,8.269999,1005.623,0,130.992891857,19.22,130.7071,7.448,7.35671978857,1.80078
2021-09-01T20:46:39Z,13.06813,19.5634,0.3391252,73.81124,0,1156,6.37,23.26554,7.8792,43690,23.73877,1007.423,0.001695626,6.35,1005.623,0,133.170503055,19.8,136.0009,6.3308,6.26916755491,1.80078
2021-09-01T21:01:42Z,13.07482,19.77307,0.3131137,74.12402,0,1156,4.4884,22.8408,6.4484,43690,21.91796,1008.229,0.001565569,5.841,1006.428,0,136.19953712,19.77,142.9368,5.0666,5.02176781609,1.80078
2021-09-01T21:16:43Z,13.08717,19.64145,0.08092786,73.89177,0,1156,5.7232,22.41832,6.3112,43690,5.66495,1008.229,0.0004046393,6.311,1006.428,0,134.281586652,19.84,135.688,5.4292,5.37422988506,1.80078
2021-09-01T21:31:46Z,13.0991,19.71549,0.04576278,74.57666,0,1156,3.9396,21.75184,6.0956,43690,3.203394,1008.229,0.0002288139,5.174,1006.428,0,135.843048276,19.72,132.0972,4.8412,4.79377701149,1.80078
2021-09-01T21:46:43Z,13.11568,18.5985,0.05925206,78.13133,0,1156,4.1356,20.98822,6.8208,43690,4.147644,1008.229,0.0002962603,6.821,1006.428,0,136.522590146,18.73,147.8886,4.6844,4.74093409827,1.80078
2021-09-01T22:01:43Z,13.1267,18.46309,0.08914478,79.21461,0,1156,2.7832,20.31496,6.174,43690,6.240134,1009.221,0.0004457239,4.214,1007.42,0,139.475847852,18.53,152.96,3.5378,3.60730114943,1.80078
2021-09-01T22:16:45Z,13.14398,17.86049,0.06168009,80.00254,0,1156,3.92,19.70496,5.0764,43690,4.317606,1009.221,0.0003084005,4.567,1007.42,0,140.589831877,18.03,125.4543,3.5868,3.43912413736,1.80078
2021-09-01T22:31:45Z,13.15861,17.46654,0.01252878,79.78266,0,1156,2.3324,19.10174,6.0172,43690,0.8770142,1009.221,6.264388e-05,5.116,1007.42,0,136.673658108,17.53,153.3232,2.8812,3.12867816092,1.80078
2021-09-01T22:46:46Z,13.17527,16.8913,0.005783261,82.89875,0,1156,2.4304,18.48045,4.0964,43690,0.4048282,1009.221,2.89163e-05,2.901,1007.42,0,142.514230114,16.99,138.8022,2.2834,2.37914712644,1.80078
2021-09-01T23:01:48Z,13.1863,16.55266,0.001445902,84.76126,0,1156,2.352,17.81623,4.4884,43690,0.1012131,1009.312,7.22951e-06,3.391,1007.511,0,137.152489186,16.59,131.3248,2.7342,2.7156137931,1.80078
2021-09-01T23:16:46Z,13.19896,16.32384,0.0,86.16227,0,1156,1.2936,17.2356,3.7828,43690,0.0,1009.312,0.0,2.528,1007.511,0,135.028344378,16.46,178.3555,1.9404,1.99289195172,1.80078
2021-09-01T23:31:48Z,13.20666,16.6385,0.0,82.0784,0,1156,1.6268,16.91027,3.0184,43690,0.0,1009.312,0.0,2.019,1007.511,0,150.015957799,16.74,145.8936,1.47,1.46887356149,1.80078
2021-09-01T23:46:49Z,13.21282,16.23304,0.0,86.31432,0,1156,3.0968,16.58719,3.3712,43690,0.0,1009.312,0.0,3.058,1007.511,0,132.47914109,16.33,126.8956,2.3716,2.34997241379,1.80078
2021-09-02T00:01:49Z,13.21835,15.92817,0.0,87.12734,0,1156,1.3524,16.24153,3.332,43690,0.0,1010.053,0.0,2.724,1008.252,0.0,135.535347143,16.13,129.8299,2.2932,2.27855632184,1.80078
2021-09-02T00:16:47Z,13.22386,15.89429,0.0,88.68561,0,1156,3.0968,15.92071,3.3908,43690,0.0,1010.053,0.0,3.352,1008.252,0.0,131.518230289,15.96,126.126,2.2148,2.27292023121,1.80078
2021-09-02T00:31:50Z,13.22938,15.72492,0.0,90.17613,0,1156,2.7636,15.67672,3.528,43690,0.0,1010.053,0.0,2.94,1008.252,0.0,125.417271986,15.93,133.1731,2.6558,2.70198390805,1.80078
2021-09-02T00:46:51Z,13.23513,15.86143,0.0,90.71978,0,1156,4.0964,15.52987,4.1944,43690,0.0,1010.053,0.0,4.057,1008.252,0.0,133.498285574,15.86,129.8323,3.4496,3.35802068966,1.80078
2021-09-02T01:01:54Z,13.22967,15.82882,0.0,91.90753,0,1156,3.6456,15.40786,4.6844,43690,0.0,1010.065,0.0,3.763,1008.265,0.0,130.298538453,15.86,130.9416,3.7828,3.83394022989,1.80078
2021-09-02T01:16:53Z,13.23569,15.82952,0.0,92.8911,0,1156,2.94,15.36042,4.5276,43690,0.0,1010.065,0.0,3.665,1008.265,0.0,128.923415443,15.9,133.4448,3.4006,3.39688275862,1.80078
2021-09-02T01:31:55Z,13.23001,15.89719,0.0,93.43301,0,1156,3.528,15.38527,3.7044,43690,0.0,1010.065,0.0,3.704,1008.265,0.0,127.610500782,16.0,129.6923,2.8224,2.81350114943,1.80078
2021-09-02T01:46:56Z,13.22454,16.09969,0.0,93.43174,0,1156,3.7828,15.55471,4.7432,43690,0.0,1010.065,0.0,4.116,1008.265,0.0,124.637696631,16.23,125.0725,3.381,3.39046206897,1.80078
2021-09-02T02:01:56Z,13.21837,16.36868,0.0,92.31048,0,1156,3.8024,15.77386,4.998,43690,0.0,1011.68,0.0,4.998,1009.88,0.0,122.949048706,16.4,125.2364,3.8416,3.83923448276,1.80078
2021-09-02T02:17:00Z,13.20732,16.47022,0.0,91.49733,0,1156,3.234,15.94557,4.7824,43690,0.0,1011.68,0.0,4.782,1009.88,0.0,124.288880213,16.44,130.8642,3.43,3.448256,1.80078
2021-09-02T02:31:59Z,13.21284,16.19921,0.0,91.63283,0,1156,1.6856,15.99527,4.0768,43690,0.0,1011.68,0.0,2.783,1009.88,0.0,125.492854214,16.33,121.893,2.9596,2.99282988506,1.80078
2021-09-02T02:46:58Z,13.21836,16.16534,0.0,91.9377,0,1156,2.4892,15.92071,4.2532,43690,0.0,1011.68,0.0,3.94,1009.88,0.0,127.328398542,16.27,142.89,3.0968,3.09173103448,1.80078
2021-09-02T03:02:01Z,13.22387,15.82658,0.0,92.07321,0,1156,0.6076,15.79872,4.1552,43690,0.0,1012.004,0.0,1.235,1010.203,0.0,135.70194327,16.03,148.1332,2.4598,2.35537930862,1.80078
2021-09-02T03:16:56Z,13.22387,15.55558,0.0,92.00546,0,1156,0.3724,15.55471,1.568,43690,0.0,1012.004,0.0,0.804,1010.203,0.0,161.811038298,15.72,146.5458,0.8624,0.807225415029,1.80078
2021-09-02T03:31:57Z,13.23535,15.79415,0.0,92.68536,0,1156,1.4504,15.26327,4.2728,43690,0.0,1012.004,0.0,1.94,1010.203,0.0,141.342836543,15.76,165.5748,2.352,2.34463583642,1.80078
2021-09-02T03:47:00Z,13.23532,15.28618,0.0,92.44853,0,1156,1.6268,15.04413,2.7048,43690,0.0,1012.004,0.0,1.705,1010.203,0.0,145.485553109,15.46,158.1673,1.5092,1.57734942414,1.80078
2021-09-02T04:02:03Z,13.24098,14.88154,0.0,92.89209,0,1156,1.1564,14.7798,1.764,43690,0.0,1011.538,0.0,1.411,1009.738,0.0,150.971511441,15.05,45.7729,0.9211999,0.905655163218,1.80078
2021-09-02T04:16:59Z,13.24748,14.92189,0.0,93.00469,0,1156,1.5484,14.66005,2.8224,43690,0.0,1011.538,0.0,2.117,1009.738,0.0,117.583048331,14.99,65.45599,1.4896,1.58884623468,1.80078
2021-09-02T04:32:01Z,13.24982,14.38659,0.0,93.0841,0,1156,1.3328,14.54031,1.9992,43690,0.0,1011.538,0.0,1.352,1009.738,0.0,155.138199066,14.56,176.0146,1.1564,1.12193102759,1.80078
2021-09-02T04:47:02Z,13.25593,14.28659,0.0,94.03576,0,1156,0.9211999,14.32342,1.4504,43690,0.0,1011.538,0.0,1.137,1009.738,0.0,70.5717403893,14.52,70.5187,0.8722,0.862737910345,1.80078
2021-09-02T05:02:04Z,13.26146,14.11725,0.0,94.17146,0,1156,0.9015999,14.13365,1.47,43690,0.0,1010.388,0.0,1.215,1008.587,0.0,95.7096867979,14.22,203.8573,0.6664,0.718891944253,1.80078
2021-09-02T05:17:04Z,13.26698,13.84615,0.0,94.40867,0,1156,0.686,13.99131,1.7836,43690,0.0,1010.388,0.0,1.294,1008.587,0.0,110.166677131,13.95,58.24839,1.0976,1.06932642529,1.80078
2021-09-02T05:32:04Z,13.2725,14.21891,0.0,95.15418,0,1156,0.4312,13.82413,1.6464,43690,0.0,1010.388,0.0,1.137,1008.587,0.0,57.6323825407,14.29,55.07251,0.9408,0.978986193103,1.80078
2021-09-02T05:47:04Z,13.26698,13.77838,0.0,95.28973,0,1156,0.3528,13.75409,1.2348,43690,0.0,1010.388,0.0,0.706,1008.587,0.0,122.993947457,13.81,177.6564,0.5292,0.522216087931,1.80078
2021-09-02T06:02:02Z,13.26698,13.88004,0.0,95.3575,0,1156,0.9408,13.80154,1.0584,43690,0.0,1011.689,0.0,0.98,1009.888,0.0,142.483071604,13.98,127.3958,0.6468,0.640829876437,1.80078
2021-09-02T06:17:04Z,13.26146,14.21891,0.0,95.49305,0,1156,0.7448,13.89643,1.0976,43690,0.0,1011.689,0.0,0.725,1009.888,0.0,128.853422859,14.25,150.1562,0.7252,0.754149413793,1.80078
2021-09-02T06:32:03Z,13.26146,14.49,0.0,95.79802,0,1156,1.2152,14.03876,1.764,43690,0.0,1011.689,0.0,1.764,1009.888,0.0,154.065893218,14.46,158.6733,0.9211999,0.958597676437,1.80078
2021-09-02T06:47:08Z,13.25042,15.03219,0.0,95.76414,0,1156,0.9799999,14.30083,1.7052,43690,0.0,1011.689,0.0,1.254,1009.888,0.0,156.763765174,15.03,164.4476,0.7448,0.774988495402,1.80078
2021-09-02T07:02:08Z,13.24491,14.96394,0.0,95.62778,0,1156,0.9604,14.51546,1.7444,43690,0.0,1012.006,0.0,1.548,1010.205,0.0,144.246743798,15.1,36.3538,0.9408,0.920186193103,1.80078
2021-09-02T07:17:05Z,13.24376,15.29926,0.0,95.38445,0,1156,0.5292,14.73235,1.4896,43690,0.0,1012.006,0.0,0.98,1010.205,0.0,67.3613050289,15.33,59.20646,0.882,0.847445069942,1.80078